Probability
1 0 0 0 0 0 0 0 0 0 0 0 0 0 0 0 0 0 0 0 0 0 0 0 0 0 0 0 0 0 0 0 1 2 2 2 1 1 1 0 0 1 0
2 1 1 1 1 0 0 0 0 0 0 0 0 0 0 0 0 0 0 0 0 0 0 0 0 0 0 0 0 0 0 0 0 1 1 1 1 2 1 1 1 2 1
3 3 2 2 2 1 0 0 0 0 0 0 0 0 0 0 0 0 0 0 0 0 0 0 0 0 0 0 0 0 0 0 0 0 0 0 1 1 1 1 2 2 2
3 3 3 3 3 1 0 0 0 0 0 0 0 0 0 0 0 0 0 0 0 0 0 0 0 0 0 0 0 0 0 0 0 0 0 0 0 0 0 1 1 1 1
3 3 3 3 2 1 0 0 0 0 0 0 0 0 0 0 0 0 0 0 0 0 0 0 0 0 0 0 0 0 0 0 0 0 0 0 0 0 0 0 0 0 0
3 3 3 1 1 1 0 0 0 0 0 0 0 0 0 0 0 0 0 0 0 0 0 0 0 0 0 0 0 0 0 0 0 0 0 0 0 0 0 0 0 0 0
3 3 2 1 0 0 0 0 0 0 0 0 0 0 0 0 0 0 0 0 0 0 0 0 0 0 0 0 0 0 0 0 1 1 1 0 0 0 0 0 0 0 0
3 2 1 0 0 0 0 0 0 0 0 0 0 0 0 0 0 0 0 0 0 0 0 0 0 0 0 0 0 0 0 0 1 1 1 1 0 0 0 0 0 0 0
2 1 0 0 0 0 0 0 0 0 0 0 0 0 0 0 0 0 0 0 0 0 0 0 0 0 0 0 0 0 0 0 0 1 1 1 1 1 0 0 0 0 0
1 0 0 0 0 0 0 0 0 0 0 0 0 0 0 0 0 0 0 0 0 0 0 0 0 0 0 0 0 0 0 0 0 0 0 1 1 1 1 0 0 0 0
1 0 0 0 0 0 0 0 0 0 0 0 0 0 0 0 0 0 0 0 0 0 0 0 0 0 0 0 0 0 0 0 0 0 0 0 1 1 1 0 0 0 0
1 0 0 0 0 0 0 0 0 0 0 0 0 0 0 0 0 0 0 0 0 0 0 0 0 0 0 0 0 0 0 0 0 0 0 0 0 0 0 0 0 0 0
0 0 1 0 0 0 0 0 0 0 0 0 0 0 0 0 0 0 0 0 0 0 0 0 0 0 0 0 0 0 0 0 0 0 0 0 0 0 0 0 0 0 0
0 0 0 0 0 0 0 0 0 0 0 0 0 0 0 0 0 0 0 0 0 0 0 0 0 0 0 0 0 0 0 0 0 0 0 0 0 0 0 0 0 0 0
0 0 0 0 0 0 0 0 0 0 0 0 0 0 0 0 0 0 0 0 0 0 0 0 0 0 0 0 0 0 0 0 0 0 0 0 0 0 0 0 0 0 0
0 0 0 0 0 0 0 0 0 0 0 0 0 0 0 0 0 0 0 0 0 0 0 0 0 0 0 0 0 0 0 0 0 0 0 0 0 0 0 0 0 0 0
0 0 0 0 0 0 0 0 0 0 0 0 0 0 0 0 0 0 0 0 0 0 0 0 0 0 0 0 0 0 0 0 0 0 0 0 0 0 0 0 0 0 0
0 0 0 0 0 0 0 0 0 0 0 0 0 0 0 0 0 0 0 0 0 0 0 0 0 0 0 0 0 0 0 0 0 0 0 0 0 0 0 0 0 0 0
0 0 0 0 0 0 0 0 0 0 0 0 0 0 0 0 0 0 0 0 0 0 0 0 0 0 0 0 0 0 0 0 0 0 0 0 0 0 0 0 0 0 0
0 0 0 0 0 0 0 0 0 0 0 0 0 0 0 0 0 0 0 0 0 0 0 0 0 0 0 0 0 0 0 0 0 0 0 0 0 0 0 0 0 0 0
0 0 0 0 0 0 0 0 0 0 0 0 0 0 0 0 0 0 0 0 0 0 0 0 0 0 0 0 0 0 0 0 0 0 0 0 0 0 0 0 0 0 0
0 0 0 0 0 0 0 0 0 0 0 0 0 0 0 0 0 0 0 0 0 0 0 0 0 0 0 0 0 0 0 0 0 0 0 0 0 0 0 0 0 0 0
0 0 0 0 0 0 0 0 0 0 0 0 0 0 0 0 0 0 0 0 0 0 0 0 0 0 0 0 0 0 0 0 0 0 0 0 0 0 0 0 0 0 0
0 0 0 0 0 0 0 0 0 0 0 0 0 0 0 0 0 0 0 0 0 0 0 0 0 0 0 0 0 0 0 0 0 0 0 0 0 0 0 0 0 0 0
0 0 0 0 0 0 0 0 0 0 0 0 0 0 0 0 0 0 0 0 0 0 0 0 0 0 0 0 0 0 0 0 0 0 0 0 0 0 0 0 0 0 0
0 0 0 0 0 0 0 0 0 0 0 0 0 0 0 0 0 0 0 0 0 0 0 0 0 0 0 0 0 0 0 0 0 0 0 0 0 0 0 0 0 0 0
Wind_Speed
3 2 2 2 2 1 1 1 1 2 2 2 2 2 2 2 2 2 2 5 6 7 7 8 8 9 10 10 11 11 11 12 12 13 13 13 13 14 14 14 14 15 15
3 2 2 2 2 1 1 1 2 2 2 2 2 3 2 2 2 2 2 3 6 7 7 8 9 9 10 10 11 11 12 12 13 13 14 14 14 15 15 15 16 16 16
3 3 2 2 1 2 2 2 2 2 2 2 2 3 2 2 2 2 1 1 2 5 7 8 9 9 10 11 11 12 12 13 13 14 14 15 15 15 16 16 16 17 17
3 3 2 2 2 2 2 2 2 2 2 2 2 2 1 1 2 1 1 1 1 1 4 7 9 9 10 11 11 12 13 13 14 15 15 15 15 16 16 17 17 17 18
3 3 2 2 2 2 1 2 2 1 1 2 2 1 1 1 1 1 1 1 1 1 1 4 7 9 10 11 12 12 13 14 15 16 16 16 16 17 17 18 18 18 19
3 3 2 2 2 2 1 2 2 2 1 1 2 2 1 1 1 1 1 1 1 2 2 2 2 5 9 11 12 13 14 15 16 16 17 17 18 18 18 19 19 19 20
3 3 2 2 2 1 1 1 2 2 2 2 2 2 2 2 0 1 1 1 1 2 2 3 2 2 3 8 11 14 15 16 17 17 18 19 19 19 20 20 20 20 20
3 3 3 2 2 2 2 2 2 1 1 2 2 1 2 3 3 2 1 1 2 2 3 4 3 3 2 2 6 13 15 17 18 19 19 20 20 21 21 21 21 21 21
3 3 3 2 2 2 1 1 2 2 1 1 2 2 1 2 4 3 2 1 2 2 3 3 4 4 4 2 3 8 14 16 18 19 20 21 21 22 22 22 22 22 22
4 3 3 2 2 1 1 1 2 1 1 0 1 1 0 1 1 3 3 2 3 3 3 4 4 4 4 3 5 10 14 17 19 20 21 21 22 23 23 22 22 23 23
3 3 3 2 2 2 2 1 1 1 1 1 0 1 1 1 1 1 4 5 4 3 3 4 3 3 3 4 4 8 15 17 19 20 21 22 23 23 23 23 23 23 23
3 3 3 2 2 2 2 1 1 1 0 1 0 0 0 1 1 1 3 5 6 5 5 3 3 3 3 3 6 13 16 17 19 20 21 22 22 22 22 22 22 22 23
2 3 3 2 2 2 2 1 1 0 0 0 0 0 0 1 1 2 2 4 5 5 3 3 2 3 4 4 6 14 14 17 19 20 21 21 21 21 21 21 22 22 23
3 4 3 3 3 2 1 1 1 0 0 0 0 1 1 1 1 1 1 3 5 4 3 4 3 2 4 5 8 14 9 16 18 19 20 20 20 21 21 21 22 22 23
3 4 4 3 3 2 2 2 1 0 0 0 0 1 1 1 1 1 1 1 2 5 6 4 4 5 6 6 9 7 7 14 19 19 19 19 20 20 21 21 21 22 22
4 5 4 3 3 2 2 1 1 1 0 0 0 1 1 1 2 1 1 2 2 3 6 5 5 7 7 8 12 8 8 17 17 19 19 19 19 20 21 21 21 21 22
5 5 4 4 3 2 2 1 1 1 0 0 0 1 2 2 2 2 2 2 2 2 6 7 5 6 7 8 9 7 7 7 8 17 19 19 19 20 21 20 20 21 22
4 5 4 4 3 3 2 2 1 1 1 0 0 1 2 2 3 2 2 3 3 3 4 8 7 6 7 8 8 9 9 8 7 14 18 18 19 20 20 20 21 21 21
4 4 4 4 3 3 2 1 1 1 1 0 0 1 1 2 2 3 3 3 3 4 4 5 7 6 6 7 8 9 9 7 8 11 15 16 18 19 20 20 21 21 21
4 4 4 3 3 3 2 1 1 1 0 0 0 0 1 1 2 3 3 3 4 5 5 5 6 6 6 6 6 8 9 7 8 8 11 13 16 18 19 20 20 20 20
4 4 4 3 2 2 2 2 1 1 0 0 0 1 1 2 4 4 3 4 4 4 5 5 6 6 7 7 7 7 9 9 8 5 7 8 9 8 10 14 17 19 20
4 4 3 3 3 2 2 2 2 1 1 0 1 1 2 2 4 6 8 8 7 5 5 5 5 7 8 8 7 7 8 9 8 5 7 9 7 8 8 7 16 20 20
4 3 3 3 3 2 3 2 2 1 1 0 0 1 2 2 4 3 5 8 8 9 9 6 6 7 8 8 8 8 8 9 9 8 8 8 6 8 8 10 19 19 19
4 3 3 3 2 2 2 2 2 2 1 1 0 1 1 2 3 4 3 4 5 6 7 6 5 6 7 7 6 7 8 8 8 6 5 7 7 7 9 8 14 17 19
3 3 3 3 2 2 2 2 3 1 1 1 1 2 2 2 5 6 4 4 6 6 8 10 11 10 12 13 10 6 6 7 8 6 3 5 6 8 7 5 8 16 18
3 3 3 2 3 2 2 3 3 1 1 1 2 2 3 4 5 6 3 3 5 6 6 7 8 8 7 8 11 6 5 6 7 6 4 5 6 7 7 5 5 7 9
Wind_Direction
101 100 91 77 61 58 52 12 24 26 23 19 17 20 25 29 46 67 51 37 25 17 13 8 6 4 1 357 354 351 348 346 344 342 338 332 328 325 320 314 312 311 309
97 98 91 73 58 44 24 24 39 27 22 23 19 16 19 19 39 67 84 43 28 17 12 8 4 2 360 356 353 352 349 346 343 340 337 334 330 326 321 318 314 310 306
98 96 93 81 58 42 27 24 32 29 27 22 22 13 8 11 17 39 58 70 39 21 13 5 359 356 354 352 350 350 348 344 341 339 335 332 329 326 323 320 315 313 309
102 96 94 87 68 52 38 35 35 31 23 15 9 352 352 357 1 26 40 54 52 28 10 3 354 351 348 348 349 348 346 344 341 337 333 331 328 325 323 320 318 315 311
106 103 99 96 80 63 47 33 31 30 27 10 351 340 348 338 325 13 31 52 38 24 4 357 350 347 344 344 345 345 344 341 339 335 333 330 327 325 322 320 317 315 313
110 104 106 98 84 73 50 45 38 23 33 355 344 353 305 279 302 34 10 18 13 359 348 341 339 340 341 341 342 342 340 338 335 333 331 329 326 323 321 319 317 315 313
117 113 113 107 89 88 77 62 59 40 21 13 25 350 318 292 331 22 354 349 344 342 335 328 322 320 324 336 338 335 334 333 332 330 329 328 326 324 321 319 317 315 313
123 121 118 118 105 90 71 59 64 53 21 24 40 14 348 336 336 310 300 308 318 334 327 326 317 313 313 317 324 330 329 329 328 328 328 326 324 323 321 320 318 317 315
127 119 120 118 115 107 113 88 86 79 67 349 39 77 63 298 314 303 294 292 306 315 312 313 313 319 318 318 314 325 326 327 326 325 326 325 324 322 320 319 318 317 316
134 131 126 125 126 116 115 113 83 87 104 34 352 25 174 208 307 310 309 305 308 303 302 312 314 312 312 316 315 321 325 325 325 324 324 324 323 322 320 320 319 317 316
142 138 134 132 131 126 118 100 86 80 109 129 90 334 328 326 258 268 298 312 316 298 298 297 301 303 309 312 306 319 325 324 325 324 323 322 321 321 320 321 320 319 318
149 146 145 143 139 133 131 126 122 126 111 77 32 28 344 324 306 299 294 307 308 303 298 291 295 303 311 314 320 326 323 323 324 323 322 321 321 322 323 323 322 320 318
157 164 155 155 148 144 143 131 129 133 130 114 229 302 307 283 290 296 294 301 304 300 296 295 295 311 324 327 318 322 320 322 322 322 322 321 321 323 323 323 322 321 320
162 158 159 155 147 142 142 133 130 147 87 78 1 325 304 297 312 305 289 305 312 305 301 294 306 311 329 321 316 324 320 324 325 324 323 324 323 324 324 324 323 323 321
150 153 157 147 148 146 145 137 147 169 110 129 263 288 297 303 315 307 298 285 288 303 305 299 318 320 323 320 320 322 320 320 323 322 322 323 324 325 324 323 323 323 322
146 149 148 147 145 143 143 143 151 143 117 254 269 317 324 325 322 315 301 291 274 276 290 298 305 311 318 322 322 322 317 323 321 321 322 323 325 325 325 324 323 323 323
148 152 150 147 147 143 142 145 153 134 147 282 339 332 326 328 328 320 319 312 302 290 288 298 303 312 318 319 320 317 316 314 315 320 323 326 328 327 326 325 325 325 325
144 144 141 141 144 142 140 145 167 145 167 194 306 341 330 338 330 325 325 314 304 296 293 301 307 315 316 316 317 318 322 322 317 320 327 329 328 328 329 329 328 328 326
138 137 136 140 144 148 145 146 146 141 160 186 318 321 317 328 322 322 321 315 309 311 302 299 305 312 315 322 324 321 320 319 321 323 326 328 328 329 330 329 329 328 327
136 138 137 140 143 140 131 129 113 102 117 101 26 304 311 317 308 310 314 312 317 317 315 310 309 315 317 322 324 325 327 328 322 322 325 326 326 327 326 327 327 327 329
132 131 129 126 124 130 128 120 121 115 116 73 351 343 340 337 331 326 323 317 318 313 316 316 315 319 322 330 330 324 324 322 315 313 321 320 320 318 321 322 325 328 331
123 121 124 119 111 106 104 102 88 124 117 107 13 356 334 334 339 339 332 331 327 318 315 313 314 316 317 322 320 323 323 326 320 323 323 314 315 316 316 317 326 332 335
120 116 114 111 108 107 109 103 60 74 116 129 104 334 330 338 344 325 330 335 330 325 319 310 305 308 312 316 319 320 321 317 307 308 316 306 310 312 316 321 329 334 337
127 124 120 114 109 106 101 89 63 61 73 51 10 321 315 329 326 332 332 329 319 317 316 313 301 302 309 312 309 307 306 309 301 301 315 304 310 312 315 315 328 337 339
123 125 124 122 118 114 85 68 62 68 49 17 3 356 348 323 321 340 341 323 321 320 325 327 326 324 325 327 330 328 327 328 322 315 323 312 310 316 308 306 327 338 339
123 121 119 120 120 116 82 60 51 78 41 5 358 347 340 333 333 342 335 320 321 320 324 327 328 327 325 325 331 327 320 321 320 313 325 328 315 327 319 306 320 330 333